KIRKWALL AIRPORT current weather conditions

sailwx.info

Wind from 190 at 13 knots

Air temperature 6.0° C
Visibility: greater than 5.4 NM
Dewpoint 3.0° C

Last reported at 2015-Mar-04 22:20 UTC.
Time now 2015-Mar-05 00:19 UTC

Location: N 58°57' W 002°54'.
View on Google Maps.

See reports from other nearby stations

  
Tides and Currents Weather Stations Pressure Air Temp Water Temp Dewpoint Dewpoint Depression Visibility Wind Speed Wind Dir Waves Ship Positions
date/time (UTC)wind fromknots sea level pressurealtimeterstation pressurevisibilityair tempwater tempwave heightnotes
2015-Mar-04 23:20 200 14 5.4 6.0 Light rain.
2015-Mar-04 22:50 190 13 5.4 6.0
2015-Mar-04 22:20 190 13 5.4 6.0
2015-Mar-04 21:50 200 13 5.4 5.0
2015-Mar-04 21:20 200 14 5.4 5.0
2015-Mar-04 20:50 220 12 5.4 6.0
2015-Mar-04 20:20 230 11 5.4 6.0
2015-Mar-04 19:50 230 11 5.4 6.0
2015-Mar-04 19:20 240 10 5.4 6.0
2015-Mar-04 18:50 250 10 5.4 6.0
2015-Mar-04 18:20 250 8 5.4 5.0
2015-Mar-04 17:50 260 8 5.4 5.0
2015-Mar-04 17:20 260 5 5.4 6.0
2015-Mar-04 16:50 280 4 5.4 6.0
2015-Mar-04 16:20 300 12 5.4 7.0
2015-Mar-04 15:50 290 14 5.4 7.0
2015-Mar-04 15:20 290 14 5.4 7.0
2015-Mar-04 14:50 300 16 5.4 7.0
2015-Mar-04 14:20 290 16 5.4 7.0
2015-Mar-04 13:50 280 13 5.4 7.0
2015-Mar-04 13:20 290 16 5.4 7.0
2015-Mar-04 12:50 280 10 5.4 7.0 Showers in the vicinity.
2015-Mar-04 12:20 300 24 5.4 5.0 Light rain showers.
2015-Mar-04 11:50 300 15 gusting 26 5.4 7.0 Light rain showers.
2015-Mar-04 11:20 300 13 5.4 7.0
2015-Mar-04 10:50 310 13 5.4 6.0
2015-Mar-04 10:20 310 11 5.4 7.0
2015-Mar-04 09:50 310 13 5.4 6.0
2015-Mar-04 09:20 310 15 5.4 5.0 Showers in the vicinity.
2015-Mar-04 08:50 290 5 5.4 4.0 Showers in the vicinity.
2015-Mar-04 08:20 270 8 5.4 4.0 Showers in the vicinity.
2015-Mar-04 07:50 260 4 5.4 3.0
2015-Mar-04 07:20 300 9 5.4 3.0
2015-Mar-04 06:50 300 10 5.4 3.0
2015-Mar-04 06:20 300 9 5.4 3.0
2015-Mar-04 05:50 300 9 5.4 4.0
2015-Mar-04 05:20 340 15 5.4 5.0
2015-Mar-04 04:50 330 11 5.4 4.0 Light rain.
2015-Mar-04 04:20 350 18 5.4 3.0
2015-Mar-04 03:50 350 26 3.8 3.0 Light drizzle.
2015-Mar-04 03:20 320 27 3.8 3.0 Light rain.
2015-Mar-04 02:50 310 26 5.4 3.0
2015-Mar-04 02:20 310 20 1.8 3.0 Rain.
2015-Mar-04 01:50 360 10 5.4 4.0
2015-Mar-04 01:20 300 7 5.4 2.0
2015-Mar-04 00:50 250 4 5.4 1.0
2015-Mar-04 00:20 260 4 5.4 1.0
2015-Mar-03 23:50 5.4 2.0
2015-Mar-03 23:20 240 6 5.4 2.0
2015-Mar-03 22:50 230 4 5.4 2.0
2015-Mar-03 22:20 220 6 5.4 2.0
2015-Mar-03 21:50 210 7 5.4 2.0
2015-Mar-03 21:20 230 10 5.4 2.0
2015-Mar-03 20:50 220 14 5.4 3.0
2015-Mar-03 20:20 210 10 5.4 3.0
2015-Mar-03 19:50 210 12 5.4 2.0
2015-Mar-03 19:20 220 16 5.4 3.0
2015-Mar-03 18:50 210 14 5.4 3.0 Showers in the vicinity.
2015-Mar-03 18:20 210 15 5.4 3.0 Showers in the vicinity.
2015-Mar-03 17:50 210 18 5.4 3.0 Showers in the vicinity.
2015-Mar-03 17:20 190 16 5.4 3.0 Light rain showers.
2015-Mar-03 16:50 190 19 5.4 4.0 Light rain showers.
2015-Mar-03 16:20 210 18 5.4 5.0
2015-Mar-03 15:50 200 16 5.4 5.0
2015-Mar-03 15:20 190 14 5.4 5.0
2015-Mar-03 14:50 200 13 5.4 5.0
2015-Mar-03 14:20 220 16 5.4 5.0
2015-Mar-03 13:50 220 17 5.4 5.0
2015-Mar-03 13:20 220 17 5.4 5.0
2015-Mar-03 12:50 230 16 5.4 5.0
2015-Mar-03 12:20 220 16 5.4 5.0
2015-Mar-03 11:50 230 17 5.4 4.0
2015-Mar-03 11:20 230 18 5.4 4.0
2015-Mar-03 10:50 220 17 5.4 4.0
2015-Mar-03 10:20 230 15 5.4 4.0
2015-Mar-03 09:50 220 13 5.4 4.0
2015-Mar-03 09:20 220 15 5.4 3.0
2015-Mar-03 08:50 230 13 5.4 2.0
2015-Mar-03 08:20 240 15 5.4 2.0
2015-Mar-03 07:50 230 11 5.4 2.0 Showers in the vicinity.
2015-Mar-03 07:20 230 13 5.4 2.0 Showers in the vicinity.
2015-Mar-03 06:50 240 18 5.4 2.0 Showers in the vicinity.
2015-Mar-03 06:20 240 13 5.4 2.0
2015-Mar-03 05:50 240 16 5.4 2.0
2015-Mar-03 05:20 240 18 5.4 2.0
2015-Mar-03 04:50 240 16 5.4 2.0
2015-Mar-03 04:20 240 14 5.4 2.0
2015-Mar-03 03:50 230 14 5.4 2.0
2015-Mar-03 03:20 220 15 5.4 2.0
2015-Mar-03 02:50 230 14 5.4 3.0
2015-Mar-03 02:20 220 12 5.4 2.0
2015-Mar-03 01:50 230 11 5.4 2.0
2015-Mar-03 01:20 210 12 5.4 2.0
2015-Mar-03 00:50 210 12 5.4 2.0
2015-Mar-03 00:20 220 10 5.4 2.0